SCP
0 0 0 0 0 0 0 0 0 0 0 0 0 1 1 1 2 2 2 2 2 2 2 2 2 2 2 2 2 2 2 2 2 2 1 1 1 1 1 1 1 1 1 1
0 0 0 0 0 0 0 0 0 0 0 0 1 1 1 2 2 2 2 2 2 2 2 2 2 2 2 2 2 2 2 2 2 1 1 1 1 1 1 1 1 1 1 1
0 0 0 0 0 0 0 0 0 0 0 1 1 1 2 2 2 2 2 2 2 2 2 2 2 2 2 2 2 2 2 2 2 1 1 1 1 1 1 1 1 1 1 1
0 0 0 0 0 0 0 0 0 0 1 1 1 2 2 2 2 2 2 2 2 2 2 2 2 2 2 2 2 2 2 2 1 1 1 1 1 1 1 1 1 1 1 1
0 0 0 0 0 0 0 0 0 1 1 1 1 1 2 2 2 2 2 2 2 1 1 1 1 1 1 1 1 1 1 1 1 1 1 1 1 1 1 1 1 1 1 1
0 0 0 0 0 0 0 0 1 1 1 1 1 1 2 2 2 2 2 2 1 1 1 1 1 1 1 1 1 1 1 1 1 1 1 1 1 1 1 1 1 1 1 1
0 0 0 0 0 0 1 1 1 1 1 1 1 2 2 2 2 2 2 2 1 1 1 1 1 1 1 1 1 1 1 1 1 1 1 1 1 1 1 1 1 1 0 0
0 0 1 1 1 1 1 2 1 1 1 2 2 2 2 2 2 2 2 1 1 1 1 1 1 1 1 1 1 1 1 1 1 1 1 1 1 1 1 1 0 0 0 0
1 1 1 1 1 1 2 2 2 1 2 2 2 2 2 2 2 2 1 1 1 1 1 1 1 1 1 1 1 1 1 1 1 1 1 1 1 1 0 0 0 0 0 0
1 1 1 1 1 1 1 1 1 1 1 1 1 1 2 2 2 1 1 1 1 1 1 1 1 1 1 1 1 1 1 1 1 1 0 0 0 0 0 0 0 0 0 0
1 1 1 1 1 1 1 1 1 1 1 1 1 1 1 1 1 1 1 1 1 1 1 1 1 1 1 1 1 1 1 1 0 0 0 0 0 0 0 0 0 0 0 0
1 1 1 1 1 1 1 1 1 1 1 1 1 1 1 1 1 1 1 1 1 1 1 1 1 1 1 1 1 0 0 0 0 0 0 0 0 0 0 0 0 0 0 0
1 1 1 1 1 1 1 1 1 1 1 1 1 1 1 1 1 1 1 1 1 1 1 1 1 1 1 0 0 0 0 0 0 0 0 0 0 0 0 0 0 0 0 0
1 1 1 1 1 1 1 1 1 1 1 1 1 1 1 1 1 0 0 1 1 1 1 1 0 0 0 0 0 0 0 0 0 0 0 0 0 0 0 0 0 0 0 0
1 1 1 1 1 1 1 1 1 1 1 1 1 1 1 1 0 0 0 0 1 1 1 0 0 0 0 0 0 0 0 0 0 0 0 0 0 0 0 0 0 0 0 0
0 0 0 0 0 0 0 0 0 0 0 0 0 0 0 0 0 0 0 0 1 1 1 0 0 0 0 0 0 0 0 0 0 0 0 0 0 0 0 0 0 0 0 0
0 0 0 0 0 0 0 0 0 0 0 0 0 0 0 0 0 0 0 0 0 0 0 0 0 0 0 0 0 0 0 0 0 0 0 0 0 0 0 0 0 0 0 0
0 0 0 0 0 0 0 0 0 0 0 0 0 0 0 0 0 0 0 0 0 0 0 0 0 0 0 0 0 0 0 0 0 0 0 0 0 0 0 0 0 0 0 0
0 0 0 0 0 0 0 0 0 0 0 0 0 0 0 0 0 0 0 0 0 0 0 0 0 0 0 0 0 0 0 0 0 0 0 0 0 0 0 0 0 0 0 0
0 0 0 0 0 0 0 0 0 0 0 0 0 0 0 0 0 0 0 0 0 0 0 0 0 0 0 0 0 0 0 0 0 0 0 0 0 0 0 0 0 0 0 0
0 0 0 0 0 0 0 0 0 0 0 0 0 0 0 0 0 0 0 0 0 0 0 0 0 0 0 0 0 0 0 0 0 0 0 0 0 0 0 0 0 0 0 0
0 0 0 0 0 0 0 0 0 0 0 0 0 0 0 0 0 0 0 0 0 0 0 0 0 0 0 0 0 0 0 0 0 0 0 0 0 0 0 0 0 0 0 0
0 0 0 0 0 0 0 0 0 0 0 0 0 0 0 0 0 0 0 0 0 0 0 0 0 0 0 0 0 0 0 0 0 0 0 0 0 0 0 0 0 0 0 0
0 0 0 0 0 0 0 0 0 0 0 0 0 0 0 0 0 0 0 0 0 0 0 0 0 0 0 0 0 0 0 0 0 0 0 0 0 0 0 0 0 0 0 0
0 0 0 0 0 0 0 0 0 0 0 0 0 0 0 0 0 0 0 0 0 0 0 0 0 0 0 0 0 0 0 0 0 0 0 0 0 0 0 0 0 0 0 0
0 0 0 0 0 0 0 0 0 0 0 0 0 0 0 0 0 0 0 0 0 0 0 0 0 0 0 0 0 0 0 0 0 0 0 0 0 0 0 0 0 0 0 0
0 0 0 0 0 0 0 0 0 0 0 0 0 0 0 0 0 0 0 0 0 0 0 0 0 0 0 0 0 0 0 0 0 0 0 0 0 0 0 0 0 0 0 0
Wind_Speed
13 11 15 17 17 17 16 14 11 9 9 10 9 8 9 9 10 9 9 9 8 6 6 6 6 5 5 5 5 5 5 4 3 3 3 2 3 3 3 2 2 2 1 1
13 13 12 15 17 17 16 15 13 9 5 7 7 8 9 9 9 9 8 8 8 7 6 6 6 5 5 5 5 5 5 4 4 4 3 3 3 3 3 3 2 2 1 2
11 12 11 13 13 14 13 13 11 8 4 6 7 7 8 9 9 8 8 8 8 7 6 5 5 5 5 6 6 5 5 4 4 4 4 3 3 3 3 3 3 2 3 4
8 10 12 9 10 11 11 10 8 5 5 6 8 9 7 7 8 8 8 8 8 7 6 6 6 6 5 6 6 6 5 5 5 4 4 4 4 4 3 3 3 3 4 4
7 10 9 7 8 9 9 7 7 6 5 7 8 9 7 7 8 9 9 8 8 7 7 7 7 6 6 6 6 6 5 5 4 3 4 4 4 4 3 3 4 4 5 5
7 8 7 6 6 5 6 5 4 5 5 5 6 4 5 9 10 9 9 8 7 8 9 8 7 7 7 7 6 6 5 5 4 4 4 4 4 4 4 4 4 5 6 6
9 6 3 1 2 6 7 4 4 6 5 4 3 6 9 10 10 9 9 9 9 9 8 7 7 7 7 7 6 5 5 6 5 5 5 5 5 5 4 4 5 5 6 5
8 7 3 3 0 2 6 6 7 6 6 8 10 12 12 11 10 9 9 9 9 8 8 7 7 7 8 7 6 6 7 7 6 5 5 5 5 5 4 4 5 5 5 5
2 2 5 6 7 6 6 7 7 6 7 9 9 11 11 10 10 9 8 8 8 9 9 8 7 7 8 7 6 7 7 7 6 7 6 5 5 5 4 4 4 4 4 5
3 5 6 7 6 6 7 7 7 7 7 8 9 10 11 9 9 8 8 8 8 9 9 8 8 8 7 7 7 8 8 7 6 7 8 8 7 6 6 5 4 4 4 5
4 4 5 7 6 6 7 8 9 7 7 7 9 9 10 9 8 7 7 8 8 8 9 9 8 7 7 7 7 8 8 7 7 8 9 9 9 9 8 8 6 5 5 5
3 4 4 4 4 5 6 7 7 7 7 7 8 9 10 9 8 7 8 8 8 9 9 8 8 8 7 6 6 7 7 6 6 6 7 7 8 9 15 12 15 14 11 8
4 5 5 4 4 4 5 6 7 7 7 7 8 8 9 8 8 8 8 8 9 9 9 8 8 8 7 6 6 6 7 6 5 6 6 6 6 7 7 9 12 13 12 11
4 4 4 4 4 4 5 7 7 8 7 7 7 8 9 9 9 9 8 8 9 9 9 8 8 8 6 6 6 7 7 6 6 5 6 6 5 6 6 6 6 5 6 7
1 2 3 4 4 4 5 6 7 8 7 7 7 8 9 10 9 9 8 8 9 9 8 8 8 7 6 6 6 6 6 5 5 5 5 5 5 5 6 6 6 5 5 4
2 3 4 4 4 4 4 6 7 7 7 7 8 8 9 9 10 9 9 8 8 9 8 8 8 7 6 6 6 5 5 7 5 4 5 5 5 5 5 5 5 5 5 4
2 3 4 4 3 4 5 5 6 7 7 8 9 9 10 10 10 9 8 8 8 8 8 8 7 6 6 6 6 5 6 6 6 5 5 5 5 5 5 5 5 5 5 6
3 4 4 4 4 4 5 6 7 8 8 8 9 9 9 9 10 9 9 9 9 9 7 7 6 6 6 6 5 5 5 5 5 5 5 5 5 5 6 6 6 6 5 5
4 4 4 4 4 4 5 7 8 8 8 8 9 9 8 9 10 10 9 9 9 8 6 7 7 7 7 6 5 5 6 6 6 6 6 6 5 5 5 5 5 5 5 5
5 5 5 5 5 6 7 8 9 9 9 9 10 11 10 9 10 10 10 8 6 6 6 6 6 6 6 5 5 5 6 6 6 6 5 5 5 5 5 5 5 5 5 4
6 7 7 7 8 8 8 8 9 10 10 10 11 11 11 10 9 9 8 8 7 6 6 6 5 5 5 4 5 5 5 6 6 5 5 5 5 4 4 5 5 5 5 4
6 7 9 9 9 8 7 7 8 10 11 10 11 12 11 10 10 9 8 6 7 5 4 5 5 6 5 4 5 5 5 6 5 4 4 5 4 4 4 5 5 5 5 4
7 8 9 10 10 9 8 8 9 9 10 11 11 11 10 9 7 8 7 5 6 6 5 6 6 6 5 4 5 5 5 5 5 4 4 4 4 5 5 5 5 4 4 4
8 9 9 10 10 11 10 9 9 9 10 10 10 10 10 8 7 7 8 8 8 7 7 7 6 5 2 3 4 5 5 5 5 4 4 4 4 5 4 4 4 4 4 4
9 10 10 10 10 9 10 10 10 10 10 9 10 9 7 7 8 8 8 9 9 8 8 7 4 2 2 5 5 6 6 5 5 4 5 4 4 4 4 4 4 3 3 3
9 8 8 7 7 7 8 8 8 8 8 9 8 7 7 8 9 8 7 9 10 8 7 6 5 3 4 5 6 6 6 5 5 4 5 4 5 4 4 4 4 3 3 3
9 8 6 7 6 6 7 7 8 8 8 8 9 8 9 8 8 8 9 8 8 7 7 5 5 4 5 5 5 5 4 4 4 5 4 4 4 4 3 3 3 3 3 3
Wind_Direction
258 234 204 206 214 219 222 228 233 220 192 168 162 152 139 137 138 133 124 118 109 101 99 103 105 108 110 117 121 125 125 126 126 127 125 121 122 120 117 122 132 116 123 131
246 251 216 208 208 215 219 222 231 234 203 149 135 129 136 140 136 129 121 118 111 106 104 109 115 115 110 107 107 108 113 116 113 114 110 108 114 113 111 102 88 88 76 71
239 238 222 214 211 212 217 219 225 224 192 131 137 134 132 129 130 130 127 119 111 110 107 105 106 107 112 112 111 108 108 108 106 107 103 102 100 98 97 95 87 80 75 79
243 232 223 217 207 214 217 215 211 197 168 145 128 109 106 115 123 126 123 116 110 109 111 108 109 108 109 111 110 105 102 104 105 108 107 101 99 92 90 89 83 75 71 75
240 225 215 217 200 202 205 207 191 182 163 131 125 116 104 101 110 115 119 116 115 120 118 111 107 107 106 101 99 101 101 99 101 100 101 100 102 97 95 92 84 78 71 65
236 233 216 199 192 184 183 197 173 150 139 144 148 149 118 104 103 105 109 111 114 113 107 103 101 100 100 98 94 92 90 85 86 87 94 98 101 100 95 93 88 83 76 69
237 235 236 347 198 190 198 152 107 119 125 134 108 93 106 105 103 103 106 108 105 103 102 97 96 98 96 91 86 83 85 83 79 77 81 91 94 95 94 93 89 88 87 76
228 232 212 13 49 125 85 75 76 86 100 94 91 103 109 111 109 111 110 109 108 105 100 96 95 96 92 87 85 85 84 82 77 71 73 81 90 92 93 97 96 90 88 78
201 142 94 63 64 78 88 86 80 79 93 103 108 112 113 111 109 108 110 109 108 107 104 95 90 93 94 88 88 88 85 81 77 72 67 67 76 81 87 85 85 83 79 73
95 108 100 91 88 84 82 86 90 96 103 108 109 113 113 110 107 105 105 106 108 107 103 96 91 90 93 95 96 96 92 86 83 80 72 59 55 54 56 51 63 77 78 77
145 123 95 87 75 76 86 95 98 100 103 109 112 115 116 113 110 109 108 104 103 104 104 100 96 93 91 93 96 96 93 89 85 81 80 71 62 50 56 47 43 58 65 67
143 129 121 104 88 89 92 96 101 103 102 106 112 116 115 113 110 109 111 110 109 107 105 102 98 92 87 91 101 105 102 95 93 94 94 94 90 75 55 61 58 59 62 75
91 85 97 105 95 90 98 104 104 104 107 108 113 118 118 116 113 112 111 114 114 111 108 105 101 96 93 95 96 97 100 97 97 100 101 104 107 105 96 71 62 59 59 66
88 95 99 91 84 87 101 107 108 107 104 106 114 117 116 114 112 112 111 111 113 111 109 106 102 97 96 100 100 100 102 100 101 99 101 104 105 107 109 108 97 80 64 61
97 118 126 119 107 101 109 116 119 116 113 115 120 119 119 117 116 112 109 107 109 108 106 104 101 98 96 103 103 103 103 102 97 97 99 101 103 103 101 98 97 101 98 76
168 153 143 138 137 142 145 135 129 124 123 123 117 113 113 112 112 112 113 112 112 110 109 109 108 108 104 103 102 98 92 95 97 101 103 103 100 99 98 96 89 82 78 74
188 173 155 152 157 160 152 140 132 128 124 121 119 117 117 116 114 112 108 104 103 105 106 108 109 109 108 108 111 109 106 103 103 101 95 93 93 91 88 88 87 84 74 55
199 180 167 161 166 159 142 133 128 126 124 126 125 122 124 125 122 117 113 111 107 102 102 108 112 111 106 101 101 105 105 105 98 92 89 87 88 91 92 90 91 92 96 85
192 180 172 163 152 143 135 127 127 127 127 128 125 121 120 119 118 116 114 113 111 106 96 96 103 104 100 92 95 105 102 99 94 91 92 92 88 89 92 91 90 88 88 88
185 163 155 152 137 128 123 126 128 127 127 127 121 117 115 113 115 115 109 100 93 97 104 105 109 104 105 95 91 98 98 100 100 100 98 95 93 93 93 93 92 89 86 83
167 153 141 131 124 122 125 127 130 129 126 126 125 123 120 116 116 114 111 102 93 91 102 105 99 97 96 94 96 99 99 102 101 97 98 98 97 94 90 88 86 84 81 76
145 137 129 125 123 120 120 124 128 127 125 124 123 122 120 118 114 104 95 102 108 102 107 103 93 82 82 96 100 101 101 101 100 99 100 102 101 97 91 87 83 78 74 70
133 130 128 129 128 125 121 122 123 123 124 124 123 124 122 119 119 117 110 104 109 104 94 86 79 71 65 99 105 105 103 100 98 97 97 98 99 98 95 92 88 84 82 75
123 121 123 125 123 120 118 117 115 115 118 120 120 122 122 117 110 107 112 116 112 113 102 94 83 63 49 111 107 105 104 102 99 99 100 99 96 94 94 92 90 84 78 74
121 120 121 126 124 122 122 123 122 122 123 118 117 116 115 113 116 117 118 121 124 121 115 111 100 87 105 99 96 93 90 86 87 89 90 90 93 95 94 91 86 82 77 72
120 121 123 125 123 128 132 133 132 131 126 124 123 119 113 114 117 121 124 128 126 125 123 125 127 131 108 102 103 102 104 109 107 100 94 92 90 87 83 83 89 79 73 70
117 115 116 116 120 126 128 130 129 129 129 129 127 128 129 130 131 131 130 130 133 133 130 134 134 129 119 114 108 106 106 103 99 98 99 97 94 90 89 85 79 75 67 73